This demonstration page uses our WeatherBlox Daily Observations layout. Learn more.

40.92945, -100.16068

Hourly Observations for December 28, 2015

Temp ( °F °C ) Dew Point ( °F °C ) Humidity (%) Winds ( mph kmh ) Pressure ( in mb ) Visibility ( mi km ) Precip ( " mm )
12:15 am 00:15 Clear 16 -9 11 -11.5 82 82 NNE 8 13 30.48 1032 10 16.0934 N/A
12:35 am 00:35 Clear 16 -8.9 11 -11.5 82 82 NNE 8 13 30.45 1031 10 16.0934 N/A
12:55 am 00:55 Clear 17 -8.6 12 -11.3 81 81 NE 5 7 30.45 1031 10 16.0934 N/A
1:15 am 01:15 Clear 17 -8.5 12 -11.2 81 81 Calm 30.42 1030 10 16.0934 N/A
1:35 am 01:35 Clear 17 -8.5 11 -11.4 80 80 NE 3 6 30.42 1030 10 16.0934 N/A
1:55 am 01:55 Clear 17 -8.5 11 -11.5 79 79 NNE 5 7 30.39 1029 10 16.0934 N/A
2:15 am 02:15 Clear 17 -8.5 11 -11.4 80 80 NNE 6 9 30.36 1028 10 16.0934 N/A
2:35 am 02:35 Clear 17 -8.6 11 -11.5 80 80 NE 3 6 30.36 1028 10 16.0934 N/A
2:55 am 02:55 Clear 17 -8.5 12 -11.3 80 80 ENE 6 9 30.36 1028 10 16.0934 N/A
3:15 am 03:15 Clear 16 -8.8 11 -11.7 80 80 ENE 5 7 30.36 1028 10 16.0934 N/A
3:35 am 03:35 Clear 16 -9 11 -11.8 80 80 NE 7 11 30.36 1028 10 16.0934 N/A
3:55 am 03:55 Clear 16 -9.1 11 -11.9 80 80 NNE 8 13 30.3 1026 10 16.0934 N/A
4:15 am 04:15 Clear 16 -9 11 -11.7 81 81 NNE 9 15 30.3 1026 10 16.0934 N/A
4:55 am 04:55 Partly Cloudy 16 -9.1 10 -12.1 79 79 NNE 7 11 30.3 1026 10 16.0934 N/A
5:15 am 05:15 Mostly Cloudy 16 -9.1 10 -12.2 78 78 NE 10 17 30.3 1026 10 16.0934 N/A
5:35 am 05:35 Partly Cloudy 15 -9.2 10 -12.4 78 78 NE 7 11 30.27 1025 10 16.0934 N/A
5:55 am 05:55 Mostly Cloudy 15 -9.2 10 -12.5 77 77 N 8 13 30.27 1025 10 16.0934 N/A
6:15 am 06:15 Mostly Cloudy 15 -9.2 10 -12.3 78 78 N 8 13 30.27 1025 10 16.0934 N/A
6:35 am 06:35 Partly Cloudy 15 -9.2 10 -12.2 79 79 N 10 17 30.24 1024 10 16.0934 N/A
6:55 am 06:55 Partly Cloudy 15 -9.2 10 -12.2 79 79 N 9 15 30.24 1024 10 16.0934 N/A
7:15 am 07:15 Cloudy 15 -9.2 10 -12.2 79 79 N 8 13 30.24 1024 10 16.0934 N/A
7:35 am 07:35 Mostly Cloudy 15 -9.5 9 -12.6 78 78 N 9 15 30.24 1024 10 16.0934 N/A
7:55 am 07:55 Clear 14 -10.1 9 -13 80 80 N 12 19 30.24 1024 10 16.0934 N/A
8:15 am 08:15 Sunny 13 -10.5 8 -13.2 81 81 N 10 17 30.24 1024 10 16.0934 N/A
8:35 am 08:35 Sunny 13 -10.7 8 -13.5 80 80 N 10 17 30.27 1025 10 16.0934 N/A
8:55 am 08:55 Mostly Cloudy 14 -10.1 9 -13 80 80 N 9 15 30.21 1023 10 16.0934 N/A
9:15 am 09:15 Cloudy 14 -9.9 9 -12.8 80 80 N 8 13 30.21 1023 10 16.0934 N/A
9:35 am 09:35 Cloudy 15 -9.4 10 -12.5 78 78 N 9 15 30.21 1023 10 16.0934 N/A
9:55 am 09:55 Cloudy 16 -9 10 -12.5 76 76 N 10 17 30.21 1023 10 16.0934 N/A
10:15 am 10:15 Cloudy 16 -8.7 10 -12.4 75 75 NNE 9 15 30.21 1023 10 16.0934 N/A
10:35 am 10:35 Cloudy 17 -8.6 10 -12.3 75 75 NNE 8 13 30.21 1023 10 16.0934 N/A
10:55 am 10:55 Cloudy 17 -8.5 10 -12.4 74 74 N 8 13 30.21 1023 10 16.0934 N/A
11:15 am 11:15 Cloudy 17 -8.2 10 -12.1 74 74 N 10 17 30.15 1021 10 16.0934 N/A
11:35 am 11:35 Cloudy 18 -8 11 -11.8 74 74 N 10 17 30.15 1021 10 16.0934 N/A
11:55 am 11:55 Cloudy 18 -7.8 11 -11.7 74 74 N 10 17 30.12 1020 10 16.0934 N/A
12:15 pm 12:15 Cloudy 18 -7.7 11 -11.5 74 74 NNE 10 17 30.12 1020 10 16.0934 N/A
12:35 pm 12:35 Cloudy 18 -7.6 12 -11.2 76 76 N 10 17 30.09 1019 10 16.0934 N/A
12:55 pm 12:55 Cloudy 19 -7.2 13 -10.6 77 77 N 9 15 30.09 1019 10 16.0934 N/A
1:15 pm 13:15 Cloudy 19 -7 13 -10.3 78 78 NNW 10 17 30.06 1018 10 16.0934 N/A
1:35 pm 13:35 Cloudy 20 -6.6 14 -10 77 77 N 10 17 30.06 1018 10 16.0934 N/A
1:55 pm 13:55 Mostly Cloudy 21 -6.2 15 -9.5 78 78 NNW 10 17 30 1016 10 16.0934 N/A
2:15 pm 14:15 Cloudy 22 -5.8 16 -9 78 78 NNW 9 15 30 1016 10 16.0934 N/A
2:35 pm 14:35 Cloudy 22 -5.6 16 -8.8 78 78 N 10 17 30 1016 10 16.0934 N/A
2:55 pm 14:55 Cloudy 22 -5.4 17 -8.5 79 79 N 13 20 29.97 1015 10 16.0934 N/A
3:15 pm 15:15 Cloudy 22 -5.5 17 -8.5 80 80 N 10 17 29.97 1015 10 16.0934 N/A
3:35 pm 15:35 Cloudy 22 -5.7 16 -8.9 78 78 N 8 13 29.97 1015 10 16.0934 N/A
3:55 pm 15:55 Partly Cloudy 21 -6.1 16 -9 80 80 N 7 11 29.97 1015 10 16.0934 N/A
4:15 pm 16:15 Sunny 22 -5.4 17 -8.4 80 80 N 8 13 29.97 1015 10 16.0934 N/A
4:35 pm 16:35 Sunny 22 -5.4 17 -8.5 79 79 N 9 15 29.97 1015 10 16.0934 N/A
4:55 pm 16:55 Sunny 21 -5.9 16 -9 79 79 N 9 15 29.97 1015 10 16.0934 N/A
5:15 pm 17:15 Sunny 20 -6.5 15 -9.2 81 81 N 7 11 30 1016 10 16.0934 N/A
5:35 pm 17:35 Mostly Cloudy 20 -6.7 16 -9.1 83 83 NNW 6 9 30.03 1017 10 16.0934 N/A
5:55 pm 17:55 Cloudy 21 -5.9 16 -8.7 81 81 N 8 13 30 1016 10 16.0934 N/A
6:15 pm 18:15 Cloudy 22 -5.8 17 -8.6 81 81 N 7 11 29.97 1015 10 16.0934 N/A
6:35 pm 18:35 Cloudy 21 -6 17 -8.6 82 82 N 6 9 29.97 1015 10 16.0934 N/A
6:55 pm 18:55 Cloudy 21 -6 16 -8.7 81 81 N 8 13 30 1016 10 16.0934 N/A
7:15 pm 19:15 Cloudy 21 -6.1 16 -8.9 81 81 NW 3 6 30 1016 10 16.0934 N/A
7:35 pm 19:35 Cloudy 20 -6.6 16 -8.9 84 84 WNW 5 7 30.03 1017 10 16.0934 N/A
7:55 pm 19:55 Cloudy 20 -6.5 16 -9 83 83 WNW 6 9 30 1016 10 16.0934 N/A
8:15 pm 20:15 Cloudy 19 -7.1 15 -9.5 83 83 NW 7 11 30.06 1018 10 16.0934 N/A
8:35 pm 20:35 Cloudy 19 -7 15 -9.5 83 83 NW 7 11 30.03 1017 10 16.0934 N/A
8:55 pm 20:55 Cloudy 20 -6.8 15 -9.7 80 80 NNW 8 13 30.06 1018 10 16.0934 N/A
9:15 pm 21:15 Cloudy 19 -7 14 -9.8 81 81 NW 7 11 30.06 1018 10 16.0934 N/A
9:35 pm 21:35 Cloudy 19 -7 15 -9.6 82 82 NW 7 11 30.06 1018 10 16.0934 N/A
9:55 pm 21:55 Cloudy 19 -7 15 -9.7 81 81 NW 7 11 30.06 1018 10 16.0934 N/A
10:15 pm 22:15 Cloudy 20 -6.8 15 -9.6 81 81 NW 7 11 30.06 1018 10 16.0934 N/A
10:35 pm 22:35 Cloudy 20 -6.8 15 -9.7 80 80 NW 7 11 30.06 1018 10 16.0934 N/A
10:55 pm 22:55 Cloudy 20 -6.7 15 -9.5 81 81 NW 6 9 30.09 1019 10 16.0934 N/A
11:15 pm 23:15 Cloudy 20 -6.6 15 -9.3 81 81 NNW 7 11 30.09 1019 10 16.0934 N/A
11:35 pm 23:35 Cloudy 20 -6.5 16 -9 83 83 NNW 7 11 30.09 1019 10 16.0934 N/A
11:55 pm 23:55 Cloudy 20 -6.5 16 -8.8 84 84 NW 6 9 30.09 1019 10 16.0934 N/A

Powered by AerisWeather